����,�C�@��,���@�x,���@��,���@��,���@��,�ϐ�[,�ϐ�d��1,�ϐ�d��2,�ϐ�d��3,�J�@��,�~��o��,�~�ይ�x�i��j,�~�ይ�x�i���j,�~�ይ�x�i���j,���,�Z��~����1,�Z��~����2,�Z��~����3,�Z��~����4,�J�ᔻ��,�Z���T���x
����,��,��,kw/�u,��,m/s,cm,kg/�u,kg/�u,kg/�u,mm,1=�L_0=��,1=�L_0=��,1=�L_0=��,1=�L_0=��,p,p,p,p,p,��,��
2016-12-01 00:00:00,4.83,82.40,0.002,68.66,0.15,0.4,4.94,0.00,-330.06,0.0,0,0,0,0,0,0.00,0.00,0.00,0.00,4.25,-168.50
2016-12-01 00:10:00,4.95,81.30,0.001,73.34,0.16,0.4,3.59,0.00,-331.42,0.0,0,0,0,0,0,0.00,0.00,0.00,0.00,4.37,-168.40
2016-12-01 00:20:00,4.91,82.30,0.000,35.18,0.23,0.4,3.59,0.00,-341.23,0.0,0,0,0,0,0,0.00,0.00,0.00,0.00,4.41,-167.80
2016-12-01 00:30:00,5.03,81.30,0.001,0.00,0.28,0.4,2.91,0.00,-341.91,0.0,0,0,0,0,0,0.00,0.00,0.00,0.00,4.62,-168.10
2016-12-01 00:40:00,5.11,80.70,0.001,3.83,0.24,0.4,6.97,0.00,-331.75,0.0,0,0,0,0,0,0.00,0.00,0.00,0.00,4.58,-167.70
2016-12-01 00:50:00,5.32,80.50,0.001,11.54,0.24,0.4,4.27,0.00,-330.06,0.0,0,0,0,0,0,0.00,0.00,0.00,0.00,4.66,-167.90
2016-12-01 01:00:00,5.40,80.40,0.001,78.76,0.21,0.4,6.64,0.00,-327.01,0.0,0,0,0,0,0,0.00,0.00,0.00,0.00,4.82,-167.10
2016-12-01 01:10:00,5.57,79.82,0.001,55.00,0.26,0.4,3.59,0.00,-326.00,0.0,0,0,0,0,0,0.00,0.00,0.00,0.00,4.91,-167.00
2016-12-01 01:20:00,5.61,79.25,0.001,11.49,0.17,0.4,3.59,0.00,-325.32,0.0,0,0,0,0,0,0.00,0.00,0.00,0.00,4.99,-166.80
2016-12-01 01:30:00,5.77,79.38,0.001,351.60,0.14,0.4,6.64,0.00,-324.31,0.0,0,0,0,0,0,0.00,0.00,0.00,0.00,5.15,-166.30
2016-12-01 01:40:00,5.85,79.59,0.001,349.10,0.29,0.4,4.60,0.00,-322.61,0.0,0,0,0,0,0,0.00,0.00,0.00,0.00,5.23,-165.90
2016-12-01 01:50:00,5.86,78.88,0.000,340.30,0.26,0.4,4.27,0.00,-324.98,0.0,0,0,0,0,0,0.00,0.00,0.00,0.00,5.32,-165.80
2016-12-01 02:00:00,5.86,79.59,0.000,360.00,0.27,0.4,6.30,0.00,-325.66,0.0,0,0,0,0,0,0.00,0.00,0.00,0.00,5.23,-165.90
2016-12-01 02:10:00,5.94,81.60,0.001,333.40,0.26,0.4,4.27,0.00,-322.61,0.0,0,0,0,0,0,0.00,0.00,0.00,0.00,5.15,-165.70
2016-12-01 02:20:00,6.02,82.10,0.001,23.42,0.28,0.4,4.27,0.00,-322.61,0.0,0,0,0,0,0,0.00,0.00,0.00,0.00,5.23,-165.50
2016-12-01 02:30:00,5.86,82.90,0.000,46.01,0.28,0.4,4.27,0.00,-322.61,0.0,0,0,0,0,0,0.00,0.00,0.00,0.00,4.86,-165.20
2016-12-01 02:40:00,5.77,83.30,0.000,50.21,0.29,0.4,6.64,0.00,-320.58,0.0,0,0,0,0,0,0.00,0.00,0.00,0.00,4.66,-165.10
2016-12-01 02:50:00,6.10,82.10,0.001,67.51,0.26,0.4,4.60,0.00,-320.58,0.0,0,0,0,0,0,0.00,0.00,0.00,0.00,4.78,-165.00
2016-12-01 03:00:00,6.72,79.38,0.001,102.20,0.26,0.4,4.27,0.00,-322.27,0.0,0,0,0,0,0,0.00,0.00,0.00,0.00,5.23,-164.80
2016-12-01 03:10:00,6.93,78.37,0.001,85.60,0.24,0.4,6.64,0.00,-320.58,0.0,0,0,0,0,0,0.00,0.00,0.00,0.00,5.77,-164.60
2016-12-01 03:20:00,7.05,81.40,0.001,56.46,0.26,0.4,6.97,0.00,-329.05,0.0,0,0,0,0,0,0.00,0.00,0.00,0.00,5.98,-164.10
2016-12-01 03:30:00,7.05,82.50,0.000,211.90,0.24,0.4,4.94,0.00,-319.91,0.0,0,0,0,0,0,0.00,0.00,0.00,0.00,6.06,-163.80
2016-12-01 03:40:00,6.64,82.40,0.000,228.70,0.63,0.4,5.62,0.00,-321.26,0.0,0,0,0,0,0,0.00,0.00,0.00,0.00,5.85,-163.60
2016-12-01 03:50:00,6.47,83.80,0.000,214.00,0.84,0.4,4.94,0.00,-318.89,0.0,0,0,0,0,0,0.00,0.00,0.00,0.00,5.60,-163.60
2016-12-01 04:00:00,6.60,84.20,0.001,226.50,0.24,0.4,6.97,0.00,-317.54,0.5,0,0,0,0,0,0.00,0.00,0.00,0.00,5.77,-163.20
2016-12-01 04:10:00,6.76,84.30,0.001,210.70,0.23,0.4,4.27,0.00,-316.52,0.0,0,0,0,0,0,0.00,0.00,0.00,0.00,5.97,-163.70
2016-12-01 04:20:00,7.01,84.70,0.001,317.30,0.17,0.4,6.30,0.00,-317.20,0.0,0,0,0,0,0,0.00,0.00,0.00,0.00,6.14,-163.80
2016-12-01 04:30:00,7.25,84.40,0.001,129.50,0.26,0.4,4.94,0.00,-316.52,0.0,0,0,0,0,0,0.00,0.00,0.00,0.00,6.30,-163.40
2016-12-01 04:40:00,7.04,85.60,0.000,28.75,0.24,0.4,6.97,0.00,-325.32,0.0,0,0,0,0,0,0.00,0.00,0.00,0.00,6.13,-163.00
2016-12-01 04:50:00,7.38,84.70,0.001,192.90,0.26,0.4,4.27,0.00,-323.29,0.0,0,0,0,0,0,0.00,0.00,0.00,0.00,6.39,-162.60
2016-12-01 05:00:00,7.54,84.70,0.001,221.30,0.24,0.4,6.30,0.00,-317.54,0.0,0,0,0,0,0,0.00,0.00,0.00,0.00,6.46,-162.80
2016-12-01 05:10:00,7.70,84.70,0.001,250.30,0.18,0.4,4.94,0.00,-314.15,0.0,0,0,0,0,0,0.00,0.00,0.00,0.00,6.83,-162.00
2016-12-01 05:20:00,7.99,83.80,0.001,211.20,0.31,0.4,6.30,0.00,-313.47,0.0,0,0,0,0,0,0.00,0.00,0.00,0.00,7.08,-162.50
2016-12-01 05:30:00,8.16,82.00,0.001,206.40,0.92,0.4,6.97,0.00,-313.13,0.0,0,0,0,0,0,0.00,0.00,0.00,0.00,7.20,-162.70
2016-12-01 05:40:00,8.31,82.00,0.001,211.10,0.76,0.5,5.28,0.00,-310.43,0.0,0,0,0,0,0,0.00,0.00,0.00,0.00,7.36,-162.10
2016-12-01 05:50:00,8.47,81.30,0.000,209.50,0.28,0.4,6.97,0.00,-308.73,0.0,0,0,0,0,0,0.00,0.00,0.00,0.00,7.43,-162.90
2016-12-01 06:00:00,8.62,82.00,0.002,209.30,0.24,0.4,6.97,0.00,-306.36,0.0,0,0,0,0,0,0.00,0.00,0.00,0.00,7.84,-162.10
2016-12-01 06:10:00,9.57,79.49,0.004,210.10,0.79,0.5,4.94,0.00,-305.69,0.0,0,0,0,0,0,0.00,0.00,0.00,0.00,8.82,-161.40
2016-12-01 06:20:00,9.02,79.38,0.000,209.30,1.06,0.5,7.65,0.00,-308.40,0.0,0,0,0,0,0,0.00,0.00,0.00,0.00,8.28,-161.60
2016-12-01 06:30:00,8.86,81.90,0.000,201.00,0.82,0.5,6.97,0.00,-307.72,0.0,0,0,0,0,0,0.00,0.00,0.00,0.00,8.15,-162.10
2016-12-01 06:40:00,8.78,83.80,0.001,210.90,2.59,0.5,5.62,0.00,-300.61,0.0,0,0,0,0,0,0.00,0.00,0.00,0.00,7.95,-162.50
2016-12-01 06:50:00,8.78,84.80,0.003,207.90,1.23,0.5,6.30,0.00,-297.22,0.0,0,0,0,0,0,0.00,0.00,0.00,0.00,7.99,-162.50
2016-12-01 07:00:00,8.61,84.80,0.003,217.10,1.14,0.5,6.64,0.00,-295.53,0.0,0,0,0,0,0,0.00,0.00,0.00,0.00,8.07,-162.10
2016-12-01 07:10:00,8.78,85.10,0.004,216.70,1.08,0.5,4.94,0.00,-293.84,0.0,0,0,0,0,0,0.00,0.00,0.00,0.00,8.07,-162.70
2016-12-01 07:20:00,8.94,84.50,0.004,202.80,0.41,0.5,4.94,0.00,-292.48,0.0,0,0,0,0,0,0.00,0.00,0.00,0.00,8.32,-163.50
2016-12-01 07:30:00,9.01,83.60,0.011,214.20,0.21,0.5,5.62,0.00,-290.79,0.0,0,0,0,0,0,0.00,0.00,0.00,0.00,8.47,-163.70
2016-12-01 07:40:00,9.01,83.20,0.024,212.40,0.21,0.5,6.64,0.00,-288.76,0.0,0,0,0,0,0,0.00,0.00,0.00,0.00,8.47,-163.70
2016-12-01 07:50:00,9.06,83.40,0.026,201.00,0.77,0.5,4.94,0.00,-280.30,0.0,0,0,0,0,0,0.00,0.00,0.00,0.00,8.48,-163.20
2016-12-01 08:00:00,9.02,82.10,0.034,214.00,1.62,0.5,6.30,0.00,-286.05,0.0,0,0,0,0,0,0.00,0.00,0.00,0.00,8.56,-164.40
2016-12-01 08:10:00,9.17,80.50,0.060,213.50,1.90,0.5,5.96,0.00,-284.70,0.0,0,0,0,0,0,0.00,0.00,0.00,0.00,8.80,-164.20
2016-12-01 08:20:00,9.25,78.37,0.120,215.00,2.10,0.5,6.30,0.00,-280.30,0.0,0,0,0,0,0,0.00,0.00,0.00,0.00,9.16,-164.40
2016-12-01 08:30:00,9.50,77.62,0.072,185.20,0.15,0.5,4.27,0.00,-280.97,0.0,0,0,0,0,0,0.00,0.00,0.00,0.00,9.08,-164.90
2016-12-01 08:40:00,9.66,78.06,0.107,183.70,0.20,0.5,4.27,0.00,-279.28,0.0,0,0,0,0,0,0.00,0.00,0.00,0.00,9.33,-164.40
2016-12-01 08:50:00,9.91,76.84,0.149,208.00,1.48,0.5,4.60,0.00,-278.27,0.0,0,0,0,0,0,0.00,0.00,0.00,0.00,9.74,-164.00
2016-12-01 09:00:00,10.17,75.86,0.041,208.70,2.21,0.5,6.97,0.00,-275.56,0.0,0,0,0,0,0,0.00,0.00,0.00,0.00,9.67,-164.80
2016-12-01 09:10:00,10.12,76.13,0.073,215.70,1.70,0.5,6.30,0.00,-278.94,0.0,0,0,0,0,0,0.00,0.00,0.00,0.00,9.87,-164.70
2016-12-01 09:20:00,10.41,73.87,0.070,214.70,1.87,0.5,4.27,0.00,-274.54,0.0,0,0,0,0,0,0.00,0.00,0.00,0.00,10.20,-164.10
2016-12-01 09:30:00,10.36,72.85,0.135,214.10,0.54,0.5,3.59,0.00,-275.22,0.0,0,0,0,0,0,0.00,0.00,0.00,0.00,10.15,-164.30
2016-12-01 09:40:00,10.65,72.27,0.165,55.57,0.28,0.5,3.93,0.00,-272.51,0.0,0,0,0,0,0,0.00,0.00,0.00,0.00,10.98,-164.60
2016-12-01 09:50:00,11.24,71.29,0.444,98.10,0.24,0.5,4.94,0.00,-272.85,0.0,0,0,0,0,0,0.00,0.00,0.00,0.00,14.53,-163.90
2016-12-01 10:00:00,11.81,70.21,0.389,158.30,0.23,0.5,4.27,0.00,-267.10,0.0,0,0,0,0,0,0.00,0.00,0.00,0.00,16.80,-164.00
2016-12-01 10:10:00,11.89,68.82,0.184,154.70,0.21,0.5,6.30,0.00,-262.02,0.0,0,0,0,0,0,0.00,0.00,0.00,0.00,13.21,-165.60
2016-12-01 10:20:00,11.97,69.70,0.087,162.10,0.18,0.5,4.94,0.00,-255.25,0.0,0,0,0,0,0,0.00,0.00,0.00,0.00,12.50,-165.20
2016-12-01 10:30:00,12.20,70.55,0.099,198.50,0.16,0.5,4.94,0.00,-253.89,0.0,0,0,0,0,0,0.00,0.00,0.00,0.00,12.61,-163.90
2016-12-01 10:40:00,12.29,70.01,0.068,214.80,0.24,0.5,4.27,0.00,-251.86,0.0,0,0,0,0,0,0.00,0.00,0.00,0.00,12.74,-165.40
2016-12-01 10:50:00,12.29,69.40,0.050,214.40,0.17,0.5,4.27,0.00,-250.85,0.0,0,0,0,0,0,0.00,0.00,0.00,0.00,12.53,-163.60
2016-12-01 11:00:00,12.58,70.38,0.120,186.50,0.22,0.5,5.96,0.00,-253.89,0.0,0,0,0,0,0,0.00,0.00,0.00,0.00,12.90,-161.30
2016-12-01 11:10:00,12.70,69.36,0.139,176.00,0.26,0.5,5.62,0.00,-252.20,0.0,0,0,0,0,0,0.00,0.00,0.00,0.00,13.32,-161.70
2016-12-01 11:20:00,12.95,69.70,0.161,179.50,0.24,0.5,5.62,0.00,-248.48,0.0,0,0,0,0,0,0.00,0.00,0.00,0.00,13.94,-164.20
2016-12-01 11:30:00,13.11,68.48,0.216,225.10,0.28,0.5,3.93,0.00,-246.11,0.0,0,0,0,0,0,0.00,0.00,0.00,0.00,15.46,-164.10
2016-12-01 11:40:00,13.93,67.74,0.286,170.00,0.15,0.5,3.25,0.00,-242.72,0.0,0,0,0,0,0,0.00,0.00,0.00,0.00,16.78,-162.30
2016-12-01 11:50:00,14.26,65.57,0.239,103.30,0.18,0.5,3.59,0.00,-239.68,0.0,0,0,0,0,0,0.00,0.00,0.00,0.00,16.03,-162.50
2016-12-01 12:00:00,14.76,61.71,0.150,194.10,0.20,0.5,5.62,0.00,-235.61,0.0,0,0,0,0,0,0.00,0.00,0.00,0.00,16.61,-159.50
2016-12-01 12:10:00,14.80,63.03,0.112,205.50,0.20,0.5,6.30,0.00,-231.89,0.0,0,0,0,0,0,0.00,0.00,0.00,0.00,16.07,-159.70
2016-12-01 12:20:00,14.76,62.83,0.152,201.40,0.18,0.5,3.59,0.00,-230.54,0.0,0,0,0,0,0,0.00,0.00,0.00,0.00,15.70,-159.70
2016-12-01 12:30:00,15.00,63.14,0.084,188.40,0.19,0.5,2.91,0.00,-228.17,0.0,0,0,0,0,0,0.00,0.00,0.00,0.00,15.45,-161.20
2016-12-01 12:40:00,15.17,61.85,0.081,208.30,0.17,0.5,3.59,0.00,-222.08,0.0,0,0,0,0,0,0.00,0.00,0.00,0.00,15.78,-159.30
2016-12-01 12:50:00,15.05,62.80,0.028,217.90,0.24,0.5,6.30,0.00,-218.70,0.0,0,0,0,0,0,0.00,0.00,0.00,0.00,15.12,-158.00
2016-12-01 13:00:00,14.80,71.50,0.019,222.40,0.21,0.5,6.30,0.00,-221.07,0.0,0,0,0,0,0,0.00,0.00,0.00,0.00,13.76,-157.70
2016-12-01 13:10:00,14.26,77.83,0.044,203.30,0.36,0.5,4.27,0.00,-221.41,0.0,0,0,0,0,0,0.00,0.00,0.00,0.00,13.27,-157.20
2016-12-01 13:20:00,14.01,81.30,0.047,219.50,0.56,0.5,5.63,0.00,-226.49,0.5,0,0,0,0,0,0.00,0.00,0.00,0.00,13.02,-157.40
2016-12-01 13:30:00,13.89,80.30,0.045,214.30,2.22,0.5,5.29,0.00,-227.84,0.0,0,0,0,0,0,0.00,0.00,0.00,0.00,13.10,-157.90
2016-12-01 13:40:00,13.97,79.70,0.092,216.80,1.74,0.5,5.63,0.00,-226.15,0.0,0,0,0,0,0,0.00,0.00,0.00,0.00,13.35,-157.50
2016-12-01 13:50:00,14.06,79.22,0.111,224.90,1.25,0.5,4.27,0.00,-232.58,0.0,0,0,0,0,0,23.00,47.00,52.00,26.00,13.97,-158.40
2016-12-01 14:00:00,14.26,79.15,0.031,217.30,0.94,0.5,5.28,0.00,-234.94,0.0,0,0,0,0,0,47.00,47.00,51.00,75.00,14.05,-157.90
2016-12-01 14:10:00,14.39,77.12,0.043,218.70,1.26,0.5,5.63,0.00,-234.95,0.0,0,0,0,0,0,46.00,24.00,50.00,28.00,13.92,-158.00
2016-12-01 14:20:00,14.34,76.91,0.011,218.40,0.87,0.5,4.95,0.00,-234.26,0.0,0,0,0,0,0,23.00,47.00,25.00,25.00,13.88,-158.20
2016-12-01 14:30:00,14.26,78.20,0.012,219.30,1.10,0.5,4.95,0.00,-237.99,0.0,0,0,0,0,0,23.00,0.00,25.00,26.00,13.47,-157.80
2016-12-01 14:40:00,14.18,78.30,0.043,226.80,1.11,0.5,5.62,0.00,-235.96,0.0,0,0,0,0,0,23.00,23.00,0.00,26.00,13.84,-158.20
2016-12-01 14:50:00,14.31,77.59,0.091,219.70,1.34,0.5,5.62,0.00,-233.93,0.0,0,0,0,0,0,0.00,23.00,25.00,25.00,14.14,-158.00
2016-12-01 15:00:00,14.31,75.42,0.061,215.20,2.01,0.5,5.62,0.00,-236.97,0.0,0,0,0,0,0,22.00,0.00,25.00,0.00,14.06,-158.30
2016-12-01 15:10:00,14.26,73.36,0.078,221.20,2.10,0.5,5.62,0.00,-234.94,0.0,0,0,0,0,0,0.00,24.00,0.00,26.00,14.09,-157.70
2016-12-01 15:20:00,14.15,71.77,0.011,218.40,3.01,0.5,3.59,0.00,-236.29,0.0,0,0,0,0,0,23.00,0.00,25.00,0.00,13.81,-157.70
2016-12-01 15:30:00,14.19,71.90,0.032,218.60,2.73,0.5,4.27,0.00,-237.31,0.0,0,0,0,0,0,0.00,23.00,0.00,25.00,13.81,-157.40
2016-12-01 15:40:00,14.43,63.24,0.030,211.90,2.77,0.5,4.27,0.00,-240.70,0.0,0,0,0,0,0,0.00,0.00,0.00,0.00,13.97,-157.70
2016-12-01 15:50:00,14.26,65.13,0.027,223.90,2.29,0.5,4.94,0.00,-238.33,0.0,0,0,0,0,0,23.00,0.00,25.00,0.00,13.97,-157.60
2016-12-01 16:00:00,14.10,66.05,0.011,221.00,3.03,0.5,4.94,0.00,-237.98,0.0,0,0,0,0,0,0.00,23.00,0.00,26.00,13.76,-157.60
2016-12-01 16:10:00,14.10,68.28,0.002,220.60,2.28,0.5,5.62,0.00,-240.69,0.0,0,0,0,0,0,0.00,0.00,0.00,0.00,13.64,-157.40
2016-12-01 16:20:00,14.10,68.52,0.002,214.60,2.35,0.5,4.27,0.00,-238.32,0.0,0,0,0,0,0,0.00,0.00,0.00,0.00,13.48,-157.50
2016-12-01 16:30:00,13.94,71.77,0.001,216.40,2.96,0.5,4.61,0.00,-240.02,0.0,0,0,0,0,0,23.00,0.00,25.00,0.00,13.39,-157.40
2016-12-01 16:40:00,13.77,73.09,0.000,221.20,2.32,0.5,4.27,0.00,-242.39,0.0,0,0,0,0,0,0.00,0.00,0.00,25.00,13.22,-157.70
2016-12-01 16:50:00,13.77,73.22,0.000,226.30,2.24,0.5,4.94,0.00,-245.09,0.0,0,0,0,0,0,0.00,0.00,0.00,0.00,13.02,-157.70
2016-12-01 17:00:00,13.77,73.76,0.000,222.50,1.70,0.5,5.28,0.00,-245.77,0.0,0,0,0,0,0,0.00,23.00,0.00,0.00,12.90,-157.90
2016-12-01 17:10:00,13.61,74.24,0.000,213.10,0.27,0.5,4.27,0.00,-249.16,0.0,0,0,0,0,0,0.00,0.00,0.00,0.00,12.82,-157.80
2016-12-01 17:20:00,13.78,73.09,0.000,212.50,0.91,0.5,5.62,0.00,-246.78,0.0,0,0,0,0,0,0.00,0.00,0.00,0.00,12.94,-158.10
2016-12-01 17:30:00,14.02,71.46,0.001,223.80,2.22,0.5,5.62,0.00,-245.43,0.0,0,0,0,0,0,0.00,0.00,0.00,0.00,13.36,-158.00
2016-12-01 17:40:00,14.02,71.02,0.000,220.90,1.82,0.5,6.30,0.00,-246.11,0.0,0,0,0,0,0,0.00,0.00,0.00,0.00,13.15,-158.00
2016-12-01 17:50:00,14.00,70.58,0.001,210.20,1.70,0.5,5.62,0.00,-246.45,0.0,0,0,0,0,0,0.00,0.00,25.00,0.00,13.25,-157.80
2016-12-01 18:00:00,14.03,70.24,0.000,212.20,1.26,0.5,4.94,0.00,-247.80,0.0,0,0,0,0,0,23.00,0.00,0.00,0.00,13.20,-158.20
2016-12-01 18:10:00,14.07,70.35,0.002,215.70,1.18,0.5,6.64,0.00,-247.46,0.0,0,0,0,0,0,0.00,0.00,0.00,0.00,13.61,-158.20
2016-12-01 18:20:00,14.07,69.91,0.000,225.30,2.18,0.5,4.27,0.00,-246.11,0.0,0,0,0,0,0,0.00,0.00,0.00,0.00,13.65,-157.90
2016-12-01 18:30:00,13.29,72.61,0.002,226.20,3.52,0.5,4.94,0.00,-244.08,0.0,0,0,0,0,0,0.00,0.00,0.00,0.00,12.83,-157.60
2016-12-01 18:40:00,13.12,74.27,0.003,225.00,4.11,0.5,5.62,0.00,-248.48,0.0,0,0,0,0,0,0.00,0.00,0.00,24.00,12.62,-158.00
2016-12-01 18:50:00,13.04,76.78,0.000,223.30,3.99,0.5,4.94,0.00,-253.22,0.0,0,0,0,0,0,0.00,0.00,0.00,2.00,12.33,-157.90
2016-12-01 19:00:00,13.07,76.88,0.000,218.10,3.38,0.5,4.94,0.00,-250.85,0.0,0,0,0,0,0,0.00,0.00,0.00,0.00,12.16,-158.80
2016-12-01 19:10:00,12.87,76.95,0.000,224.00,3.66,0.5,4.94,0.00,-251.52,0.5,0,0,0,0,0,0.00,0.00,0.00,0.00,11.91,-158.50
2016-12-01 19:20:00,12.70,70.92,0.000,222.50,4.12,0.5,5.28,0.00,-251.86,0.0,0,0,0,0,0,0.00,0.00,0.00,0.00,11.46,-158.80
2016-12-01 19:30:00,12.47,72.24,0.000,212.80,4.09,0.5,4.94,0.00,-253.22,0.0,0,0,0,0,0,0.00,0.00,0.00,0.00,11.64,-158.90
2016-12-01 19:40:00,12.55,71.39,0.000,215.80,3.74,0.5,5.62,0.00,-255.59,0.0,0,0,0,0,0,0.00,23.00,0.00,0.00,11.89,-159.00
2016-12-01 19:50:00,11.48,80.30,0.000,234.00,2.26,0.5,5.96,0.00,-257.28,1.0,0,0,0,0,0,270.00,248.00,243.00,264.00,9.70,-159.10
2016-12-01 20:00:00,11.07,82.30,0.000,246.90,2.15,0.5,6.30,0.00,-260.66,0.5,0,0,0,0,0,370.00,362.00,391.00,389.00,9.49,-159.90
2016-12-01 20:10:00,10.81,83.10,0.000,206.20,1.66,0.5,5.62,0.00,-268.11,0.0,0,0,0,0,0,238.00,214.00,246.00,261.00,9.32,-160.00
2016-12-01 20:20:00,10.73,82.90,0.000,222.40,1.36,0.5,6.30,0.00,-268.79,0.0,0,0,0,0,0,165.00,166.00,176.00,181.00,9.28,-161.10
2016-12-01 20:30:00,10.82,82.00,0.000,222.40,1.66,0.5,6.30,0.00,-270.14,0.5,0,0,0,0,0,117.00,119.00,126.00,128.00,9.29,-161.70
2016-12-01 20:40:00,10.81,81.00,0.000,229.00,1.90,0.5,6.30,0.00,-271.16,0.0,0,0,0,0,0,117.00,118.00,125.00,151.00,9.07,-162.20
2016-12-01 20:50:00,10.65,81.90,0.000,225.70,2.39,0.5,6.30,0.00,-270.14,0.0,0,0,0,0,0,116.00,119.00,125.00,104.00,9.04,-162.60
2016-12-01 21:00:00,10.49,81.20,0.000,225.70,2.46,0.5,5.62,0.00,-270.14,0.0,0,0,0,0,0,92.00,95.00,100.00,102.00,9.12,-162.00
2016-12-01 21:10:00,10.65,76.88,0.000,226.20,1.94,0.5,5.62,0.00,-269.13,0.0,0,0,0,0,0,70.00,70.00,99.00,101.00,9.00,-162.20
2016-12-01 21:20:00,10.33,78.06,0.000,215.20,2.70,0.5,5.62,0.00,-269.80,0.5,0,0,0,0,0,91.00,95.00,75.00,102.00,8.67,-162.60
2016-12-01 21:30:00,10.32,78.84,0.000,223.20,2.00,0.5,6.30,0.00,-268.79,0.0,0,0,0,0,0,116.00,142.00,150.00,154.00,8.54,-162.90
2016-12-01 21:40:00,10.20,75.02,0.000,222.50,1.90,0.5,5.62,0.00,-270.14,0.0,0,0,0,0,0,139.00,142.00,151.00,154.00,8.17,-163.10
2016-12-01 21:50:00,10.33,73.43,0.001,231.50,2.68,0.5,6.30,0.00,-274.54,0.5,0,0,0,0,0,92.00,95.00,99.00,101.00,8.10,-162.90
2016-12-01 22:00:00,10.09,76.61,0.001,222.30,1.95,0.5,6.30,0.00,-276.24,0.0,0,0,0,0,0,185.00,188.00,177.00,205.00,8.31,-163.00
2016-12-01 22:10:00,9.84,76.61,0.000,248.10,1.18,0.5,6.30,0.00,-275.56,0.5,0,0,0,0,0,186.00,191.00,205.00,205.00,8.02,-163.60
2016-12-01 22:20:00,9.68,73.05,0.000,223.40,2.53,0.5,6.30,0.00,-275.90,0.0,0,0,0,0,0,139.00,123.00,148.00,153.00,7.37,-163.40
2016-12-01 22:30:00,9.56,72.92,0.000,243.00,1.82,0.5,6.30,0.00,-276.57,0.0,0,0,0,0,0,92.00,96.00,126.00,101.00,7.66,-163.70
2016-12-01 22:40:00,9.28,73.53,0.000,254.50,1.77,0.5,4.94,0.00,-276.91,0.0,0,0,0,0,0,68.00,71.00,74.00,76.00,7.21,-163.30
2016-12-01 22:50:00,9.07,72.58,0.000,224.20,2.05,0.5,6.30,0.00,-276.57,0.0,0,0,0,0,0,69.00,71.00,75.00,102.00,7.17,-164.20
2016-12-01 23:00:00,9.03,69.91,0.000,257.80,2.08,0.5,6.30,0.00,-280.30,0.5,0,0,0,0,0,92.00,71.00,75.00,76.00,7.17,-164.70
2016-12-01 23:10:00,9.03,70.31,0.001,216.30,2.19,0.5,5.96,0.00,-286.39,0.0,0,0,0,0,0,46.00,71.00,74.00,76.00,7.33,-165.30
2016-12-01 23:20:00,8.90,68.48,0.000,275.40,2.00,0.5,6.30,0.00,-288.76,0.0,0,0,0,0,0,68.00,48.00,50.00,51.00,7.21,-164.70
2016-12-01 23:30:00,8.70,69.30,0.000,240.00,2.55,0.4,5.96,0.00,-287.07,0.0,0,0,0,0,0,23.00,47.00,49.00,50.00,7.00,-164.60
2016-12-01 23:40:00,8.54,69.23,0.000,218.40,1.38,0.5,5.96,0.00,-287.75,0.0,0,0,0,0,0,23.00,23.00,49.00,25.00,6.97,-164.50
2016-12-01 23:50:00,8.43,72.55,0.000,238.00,1.43,0.5,5.62,0.00,-286.39,0.0,0,0,0,0,0,45.00,24.00,25.00,26.00,6.78,-165.00
2016-12-02 00:00:00,8.26,70.95,0.000,235.60,2.69,0.5,6.97,0.00,-286.39,0.0,0,0,0,0,0,23.00,47.00,49.00,51.00,6.61,-164.50
2016-12-02 00:10:00,7.96,73.19,0.000,225.60,2.40,0.5,6.30,0.00,-286.73,0.5,0,0,0,0,0,91.00,76.00,74.00,101.00,5.98,-164.80
2016-12-02 00:20:00,8.08,74.64,0.001,221.30,0.38,0.5,6.30,0.00,-289.78,0.5,0,0,0,0,0,234.00,262.00,253.00,257.00,6.02,-165.20
2016-12-02 00:30:00,8.15,68.28,0.000,224.50,2.92,0.4,6.30,0.00,-290.79,0.0,0,0,0,0,0,185.00,168.00,178.00,203.00,5.67,-165.30
2016-12-02 00:40:00,8.52,67.23,0.000,228.10,2.85,0.4,6.30,0.00,-297.56,0.5,0,0,0,0,0,185.00,217.00,227.00,230.00,6.34,-164.90
2016-12-02 00:50:00,8.57,64.45,0.000,219.50,2.40,0.4,6.97,0.00,-293.84,0.0,0,0,0,0,0,161.00,168.00,175.00,181.00,6.47,-165.60
2016-12-02 01:00:00,8.90,63.68,0.001,231.80,2.29,0.4,5.96,0.00,-295.19,0.0,0,0,0,0,0,115.00,96.00,124.00,126.00,6.88,-164.80
2016-12-02 01:10:00,9.05,60.70,0.000,248.70,2.10,0.4,6.30,0.00,-293.16,0.0,0,0,0,0,0,69.00,71.00,74.00,76.00,7.15,-165.30
2016-12-02 01:20:00,9.06,55.48,0.000,224.20,2.48,0.5,6.97,0.00,-291.81,0.0,0,0,0,0,0,45.00,47.00,50.00,50.00,7.86,-164.20
2016-12-02 01:30:00,9.14,54.98,0.003,210.70,2.58,0.4,6.97,0.00,-289.78,0.0,0,0,0,0,0,30.00,23.00,24.00,26.00,8.06,-164.20
2016-12-02 01:40:00,9.05,50.44,0.003,235.60,2.05,0.4,6.97,0.00,-288.08,0.0,0,0,0,0,0,38.00,24.00,25.00,25.00,7.77,-163.90
2016-12-02 01:50:00,8.96,51.96,0.001,215.50,1.53,0.5,5.62,0.00,-289.44,0.0,0,0,0,0,0,0.00,23.00,24.00,25.00,7.76,-163.40
2016-12-02 02:00:00,9.05,52.81,0.001,226.80,1.92,0.5,6.30,0.00,-289.10,0.0,0,0,0,0,0,23.00,24.00,25.00,25.00,7.98,-162.90
2016-12-02 02:10:00,8.93,55.25,0.000,220.00,0.36,0.5,4.60,0.00,-295.53,0.0,0,0,0,0,0,22.00,0.00,0.00,22.00,7.93,-163.10
2016-12-02 02:20:00,9.29,51.79,0.002,216.80,2.82,0.5,4.94,0.00,-295.53,0.0,0,0,0,0,0,0.00,23.00,24.00,3.00,8.34,-162.50
2016-12-02 02:30:00,9.13,52.51,0.000,231.40,1.79,0.5,6.30,0.00,-292.48,0.0,0,0,0,0,0,0.00,0.00,0.00,0.00,8.18,-162.10
2016-12-02 02:40:00,9.12,44.08,0.000,209.30,2.59,0.5,4.94,0.00,-291.81,0.0,0,0,0,0,0,23.00,23.00,0.00,25.00,8.16,-161.90
2016-12-02 02:50:00,9.07,43.47,0.000,230.80,2.28,0.5,6.30,0.00,-292.15,0.0,0,0,0,0,0,0.00,0.00,0.00,0.00,8.16,-161.10
2016-12-02 03:00:00,9.12,45.19,0.001,230.60,2.10,0.5,5.28,0.00,-293.50,0.0,0,0,0,0,0,0.00,0.00,24.00,0.00,8.17,-161.40
2016-12-02 03:10:00,9.20,48.27,0.000,220.80,2.62,0.5,4.94,0.00,-292.82,0.0,0,0,0,0,0,0.00,0.00,0.00,26.00,8.41,-161.30
2016-12-02 03:20:00,9.12,50.51,0.000,216.70,2.02,0.5,5.62,0.00,-295.19,0.0,0,0,0,0,0,22.00,0.00,0.00,0.00,8.29,-161.10
2016-12-02 03:30:00,9.24,48.21,0.000,217.60,2.45,0.5,4.94,0.00,-295.87,0.0,0,0,0,0,0,0.00,0.00,0.00,0.00,8.49,-161.10
2016-12-02 03:40:00,9.15,45.94,0.000,219.80,2.04,0.5,4.27,0.00,-302.98,0.0,0,0,0,0,0,0.00,23.00,25.00,0.00,8.49,-160.80
2016-12-02 03:50:00,9.15,42.79,0.000,222.30,2.90,0.5,4.27,0.00,-303.32,0.0,0,0,0,0,0,0.00,0.00,0.00,0.00,8.24,-160.70
2016-12-02 04:00:00,9.03,42.65,0.000,225.10,2.51,0.5,5.28,0.00,-300.61,0.0,0,0,0,0,0,0.00,0.00,0.00,25.00,8.15,-160.60
2016-12-02 04:10:00,9.12,44.75,0.000,213.90,2.68,0.5,4.94,0.00,-301.96,0.0,0,0,0,0,0,0.00,0.00,0.00,0.00,8.41,-160.80
2016-12-02 04:20:00,8.91,50.74,0.003,221.50,2.40,0.5,5.28,0.00,-302.30,0.0,0,0,0,0,0,0.00,0.00,0.00,0.00,8.33,-160.60
2016-12-02 04:30:00,8.75,54.47,0.000,227.90,1.54,0.5,6.30,0.00,-303.66,0.0,0,0,0,0,0,0.00,0.00,0.00,0.00,8.09,-160.00
2016-12-02 04:40:00,8.92,55.15,0.000,227.10,1.64,0.5,5.62,0.00,-303.66,0.0,0,0,0,0,0,0.00,0.00,0.00,0.00,8.29,-161.00
2016-12-02 04:50:00,9.16,50.91,0.002,219.90,2.37,0.5,4.94,0.00,-302.98,0.0,0,0,0,0,0,23.00,0.00,0.00,0.00,8.37,-160.70
2016-12-02 05:00:00,8.99,57.18,0.000,270.60,1.87,0.5,6.64,0.00,-303.66,0.0,0,0,0,0,0,0.00,0.00,0.00,0.00,8.32,-161.00
2016-12-02 05:10:00,8.74,59.88,0.000,293.90,1.50,0.5,6.30,0.00,-305.69,0.0,0,0,0,0,0,0.00,0.00,24.00,0.00,8.16,-161.40
2016-12-02 05:20:00,8.94,56.16,0.000,229.40,1.68,0.5,6.64,0.00,-311.44,0.0,0,0,0,0,0,0.00,0.00,0.00,0.00,7.99,-161.20
2016-12-02 05:30:00,8.90,54.20,0.000,228.00,1.89,0.5,6.64,0.00,-312.80,0.0,0,0,0,0,0,0.00,0.00,0.00,0.00,8.07,-161.10
2016-12-02 05:40:00,8.69,55.99,0.000,247.80,1.90,0.5,5.96,0.00,-308.06,0.0,0,0,0,0,0,0.00,0.00,0.00,0.00,7.99,-160.90
2016-12-02 05:50:00,8.53,57.79,0.000,225.50,2.46,0.5,6.30,0.00,-308.06,0.0,0,0,0,0,0,0.00,0.00,0.00,0.00,7.74,-161.00
2016-12-02 06:00:00,8.82,52.57,0.005,216.80,2.16,0.5,4.94,0.00,-308.06,0.0,0,0,0,0,0,0.00,0.00,0.00,0.00,8.20,-161.30
2016-12-02 06:10:00,8.90,53.96,0.000,214.10,2.60,0.5,5.62,0.00,-309.07,0.0,0,0,0,0,0,0.00,0.00,0.00,0.00,8.16,-161.10
2016-12-02 06:20:00,8.88,54.77,0.000,226.50,1.78,0.5,4.94,0.00,-308.73,0.0,0,0,0,0,0,0.00,0.00,0.00,0.00,8.13,-161.10
2016-12-02 06:30:00,8.78,56.30,0.000,212.80,1.08,0.5,5.62,0.00,-308.73,0.0,0,0,0,0,0,0.00,0.00,0.00,0.00,7.87,-161.40
2016-12-02 06:40:00,8.86,53.83,0.002,232.60,1.27,0.5,7.31,0.00,-315.17,0.0,0,0,0,0,0,0.00,0.00,0.00,0.00,7.99,-160.70
2016-12-02 06:50:00,9.03,51.76,0.002,227.80,1.85,0.5,5.62,0.00,-316.86,0.0,0,0,0,0,0,0.00,0.00,0.00,0.00,8.32,-161.30
2016-12-02 07:00:00,9.03,52.13,0.004,224.20,1.01,0.5,6.97,0.00,-311.44,0.0,0,0,0,0,0,0.00,0.00,0.00,0.00,8.24,-160.40
2016-12-02 07:10:00,9.25,52.03,0.005,256.80,0.91,0.5,6.97,0.00,-310.09,0.0,0,0,0,0,0,0.00,23.00,0.00,0.00,8.58,-161.10
2016-12-02 07:20:00,9.25,52.74,0.016,224.40,1.16,0.5,6.97,0.00,-311.44,0.0,0,0,0,0,0,0.00,0.00,0.00,0.00,8.54,-160.60
2016-12-02 07:30:00,9.20,53.28,0.007,218.70,1.12,0.5,4.94,0.00,-309.41,0.0,0,0,0,0,0,0.00,0.00,0.00,0.00,8.58,-160.60
2016-12-02 07:40:00,8.99,57.89,0.008,221.60,1.26,0.5,5.28,0.00,-309.07,0.0,0,0,0,0,0,0.00,0.00,0.00,0.00,7.67,-160.20
2016-12-02 07:50:00,8.90,58.23,0.005,219.30,0.60,0.5,6.30,0.00,-308.40,0.0,0,0,0,0,0,0.00,0.00,0.00,0.00,8.15,-160.40
2016-12-02 08:00:00,8.94,59.58,0.030,214.70,0.58,0.5,4.94,0.00,-309.07,0.0,0,0,0,0,0,0.00,0.00,0.00,0.00,8.28,-160.40
2016-12-02 08:10:00,8.91,60.66,0.079,213.30,0.26,0.5,5.28,0.00,-293.84,0.0,0,0,0,0,0,0.00,0.00,0.00,0.00,8.53,-160.50
2016-12-02 08:20:00,9.15,60.16,0.046,171.90,0.29,0.5,5.62,0.00,-300.61,0.0,0,0,0,0,0,0.00,0.00,0.00,0.00,8.78,-160.00
2016-12-02 08:30:00,9.44,56.91,0.034,215.90,0.78,0.5,5.62,0.00,-306.03,0.0,0,0,0,0,0,0.00,0.00,0.00,0.00,9.02,-160.00
2016-12-02 08:40:00,9.73,48.92,0.080,216.80,2.23,0.5,5.62,0.00,-303.66,0.0,0,0,0,0,0,0.00,0.00,0.00,0.00,9.52,-160.10